Location: Raleigh
(35.7720°N, 78.6390°W)
Time: 12:24:10
(UTC-05:00)

JAS-2 - Visible Passes

Search period start: 28 February 2015 00:00
Search period end: 10 March 2015 01:00
Orbit: 800 x 1322 km, 98.5° (Epoch: 27 February)

Date Brightness Start Highest point End Pass type
(mag) Time Alt. Az. Time Alt. Az. Time Alt. Az.
28 Feb 10.7 04:18:49 10° NNE 04:26:03 54° E 04:33:43 10° S visible
28 Feb 10.8 06:04:32 10° N 06:10:47 30° WNW 06:17:10 10° WSW visible
01 Mar 12.1 03:25:18 10° NE 03:30:38 22° E 03:36:30 10° SE visible
01 Mar 10.0 05:08:46 10° N 05:16:10 70° WNW 05:23:58 10° SSW visible
02 Mar 10.8 04:13:57 10° NNE 04:21:14 51° E 04:28:51 10° S visible
02 Mar 10.7 05:59:32 10° N 06:06:00 32° WNW 06:12:34 10° SW visible
03 Mar 12.2 03:20:37 10° NE 03:25:46 20° E 03:31:25 10° SE visible
03 Mar 10.0 05:03:51 10° N 05:11:23 75° WNW 05:19:13 10° SSW visible
04 Mar 10.9 04:09:08 10° NNE 04:16:25 48° E 04:23:58 10° S visible
04 Mar 10.7 05:54:34 10° N 06:01:13 34° WNW 06:07:59 10° SW visible
05 Mar 12.2 03:15:58 10° NE 03:20:53 19° E 03:26:18 10° SE visible
05 Mar 10.0 04:58:58 10° N 05:06:36 79° WNW 05:14:28 10° SSW visible
06 Mar 11.0 04:04:20 10° NNE 04:11:35 45° E 04:19:04 10° S visible
06 Mar 10.6 05:49:36 10° N 05:56:27 36° WNW 06:03:20 10° SW visible
07 Mar 12.3 03:11:22 10° NE 03:15:59 18° E 03:21:08 10° SE visible
07 Mar 10.0 04:54:05 10° N 05:01:49 83° WNW 05:09:41 10° SSW visible
08 Mar 11.1 04:59:32 10° NNE 05:06:46 43° E 05:14:09 10° SSE visible
08 Mar 10.6 06:44:40 10° N 06:51:40 39° WNW 06:58:42 10° SW visible
09 Mar 12.4 04:06:48 10° NE 04:11:06 16° E 04:15:56 10° SE visible
09 Mar 10.1 05:49:13 10° NNE 05:57:02 88° WNW 06:04:53 10° SSW visible
